| time (UTC) | temp F | wind direction | speed MPH | gust MPH | rain 1hr in | rain 24hr in | rain mn in | humidity % | barometer mb |
| 20260508053205 | 54 | 65 | 0.0 | 0.0 | 0.00 | 0.02 | 0.02 | 63 | 1016.8 |
| 20260508051204 | 55 | 68 | 0.0 | 0.0 | 0.00 | 0.02 | 0.02 | 59 | 1016.6 |
| 20260508050704 | 55 | 68 | 0.0 | 0.0 | 0.00 | 0.02 | 0.02 | 59 | 1016.5 |
| 20260508050203 | 55 | 68 | 0.0 | 0.0 | 0.00 | 0.02 | 0.02 | 58 | 1016.4 |
| 20260508045703 | 55 | 68 | 0.0 | 0.0 | 0.00 | 0.02 | 0.02 | 57 | 1016.5 |
| 20260508044704 | 55 | 68 | 0.0 | 0.0 | 0.00 | 0.02 | 0.02 | 57 | 1016.4 |
| 20260508044204 | 55 | 68 | 0.0 | 2.0 | 0.00 | 0.02 | 0.02 | 56 | 1016.5 |
| 20260508043704 | 55 | 68 | 0.0 | 2.0 | 0.00 | 0.02 | 0.02 | 57 | 1016.5 |
| 20260508043204 | 55 | 68 | 0.0 | 7.0 | 0.00 | 0.02 | 0.02 | 56 | 1016.6 |
| 20260508042704 | 55 | 101 | 1.0 | 9.0 | 0.00 | 0.02 | 0.02 | 56 | 1016.6 |
| 20260508042204 | 55 | 22 | 2.0 | 5.0 | 0.00 | 0.02 | 0.02 | 56 | 1016.8 |
| 20260508041704 | 55 | 355 | 0.0 | 0.0 | 0.00 | 0.02 | 0.02 | 56 | 1016.6 |
| 20260508041204 | 56 | 355 | 0.0 | 0.0 | 0.00 | 0.02 | 0.02 | 55 | 1016.4 |
| 20260508040704 | 56 | 355 | 0.0 | 0.0 | 0.00 | 0.02 | 0.02 | 55 | 1016.1 |
| 20260508040203 | 56 | 355 | 0.0 | 0.0 | 0.00 | 0.02 | 0.02 | 54 | 1016.0 |
| 20260508035703 | 56 | 355 | 0.0 | 0.0 | 0.00 | 0.02 | 0.02 | 54 | 1016.0 |
| 20260508035204 | 57 | 355 | 0.0 | 0.0 | 0.00 | 0.02 | 0.02 | 53 | 1016.0 |
| 20260508034704 | 57 | 355 | 0.0 | 0.0 | 0.00 | 0.02 | 0.02 | 53 | 1015.9 |
| 20260508034204 | 57 | 355 | 0.0 | 0.0 | 0.00 | 0.02 | 0.02 | 51 | 1015.8 |
| 20260508033703 | 57 | 355 | 0.0 | 0.0 | 0.00 | 0.02 | 0.02 | 51 | 1015.9 |
| 20260508033203 | 57 | 355 | 0.0 | 0.0 | 0.00 | 0.02 | 0.02 | 50 | 1015.8 |
| 20260508032704 | 58 | 355 | 0.0 | 0.0 | 0.00 | 0.02 | 0.02 | 49 | 1015.8 |
| 20260508032204 | 58 | 355 | 0.0 | 0.0 | 0.00 | 0.02 | 0.02 | 50 | 1015.9 |
| 20260508031703 | 58 | 355 | 0.0 | 1.0 | 0.00 | 0.02 | 0.02 | 48 | 1015.9 |
| 20260508031204 | 58 | 355 | 1.0 | 2.0 | 0.00 | 0.02 | 0.02 | 47 | 1015.8 |
| 20260508030704 | 58 | 355 | 0.0 | 0.0 | 0.00 | 0.02 | 0.02 | 47 | 1015.8 |
| 20260508030203 | 59 | 355 | 1.0 | 3.0 | 0.00 | 0.02 | 0.02 | 47 | 1015.7 |
| 20260508025704 | 59 | 355 | 0.0 | 1.0 | 0.00 | 0.02 | 0.02 | 46 | 1015.7 |
| 20260508024704 | 59 | 355 | 0.0 | 3.0 | 0.00 | 0.02 | 0.02 | 46 | 1015.8 |
| 20260508024203 | 60 | 351 | 2.0 | 3.0 | 0.00 | 0.02 | 0.02 | 44 | 1015.8 |
| 20260508023704 | 60 | 21 | 3.0 | 12.0 | 0.00 | 0.02 | 0.02 | 43 | 1015.8 |
| 20260508023204 | 60 | 354 | 6.0 | 12.0 | 0.00 | 0.02 | 0.02 | 43 | 1015.8 |
| 20260508022703 | 60 | 238 | 0.0 | 3.0 | 0.00 | 0.02 | 0.02 | 43 | 1015.7 |
| 20260508022203 | 60 | 271 | 3.0 | 15.0 | 0.00 | 0.02 | 0.02 | 42 | 1015.8 |
| 20260508021703 | 61 | 340 | 0.0 | 12.0 | 0.00 | 0.02 | 0.02 | 43 | 1016.0 |
| 20260508021203 | 61 | 246 | 1.0 | 3.0 | 0.00 | 0.02 | 0.02 | 42 | 1015.8 |
| 20260508020704 | 61 | 272 | 1.0 | 3.0 | 0.00 | 0.02 | 0.02 | 40 | 1015.6 |
| 20260508015705 | 61 | 17 | 0.0 | 2.0 | 0.00 | 0.02 | 0.02 | 40 | 1015.3 |
| 20260508015205 | 61 | 17 | 1.0 | 3.0 | 0.00 | 0.02 | 0.02 | 40 | 1015.2 |
| 20260508014205 | 61 | 11 | 2.0 | 5.0 | 0.00 | 0.02 | 0.02 | 42 | 1015.0 |
| 20260508013705 | 62 | 5 | 1.0 | 3.0 | 0.00 | 0.02 | 0.02 | 46 | 1014.9 |
| 20260508013205 | 62 | 182 | 0.0 | 1.0 | 0.00 | 0.02 | 0.02 | 46 | 1014.7 |
| 20260508012705 | 62 | 182 | 0.0 | 1.0 | 0.00 | 0.02 | 0.02 | 43 | 1014.6 |
| 20260508012205 | 62 | 182 | 0.0 | 0.0 | 0.00 | 0.02 | 0.02 | 40 | 1014.6 |
| 20260508011705 | 62 | 182 | 0.0 | 0.0 | 0.00 | 0.02 | 0.02 | 38 | 1014.5 |
| 20260508011205 | 63 | 182 | 0.0 | 0.0 | 0.00 | 0.02 | 0.02 | 37 | 1014.5 |
| 20260508010705 | 63 | 182 | 0.0 | 0.0 | 0.00 | 0.02 | 0.02 | 37 | 1014.4 |
| 20260508010205 | 63 | 182 | 0.0 | 0.0 | 0.00 | 0.02 | 0.02 | 37 | 1014.3 |
| 20260508005705 | 63 | 182 | 1.0 | 2.0 | 0.00 | 0.02 | 0.02 | 37 | 1014.3 |
| 20260508005205 | 63 | 182 | 0.0 | 2.0 | 0.00 | 0.02 | 0.02 | 40 | 1014.3 |
| 20260508004705 | 63 | 182 | 0.0 | 0.0 | 0.00 | 0.03 | 0.02 | 42 | 1014.3 |
| 20260508004206 | 64 | 182 | 0.0 | 0.0 | 0.00 | 0.03 | 0.02 | 43 | 1014.2 |
| 20260508003205 | 64 | 182 | 0.0 | 0.0 | 0.00 | 0.04 | 0.02 | 38 | 1014.0 |
| 20260508002205 | 64 | 182 | 0.0 | 1.0 | 0.00 | 0.04 | 0.02 | 37 | 1014.0 |
| 20260508001705 | 65 | 182 | 0.0 | 0.0 | 0.00 | 0.04 | 0.02 | 35 | 1014.2 |
| 20260508001205 | 65 | 182 | 0.0 | 0.0 | 0.00 | 0.04 | 0.02 | 35 | 1014.1 |
| 20260508000705 | 65 | 182 | 0.0 | 0.0 | 0.00 | 0.05 | 0.02 | 34 | 1014.2 |
| 20260508000205 | 65 | 182 | 0.0 | 0.0 | 0.00 | 0.05 | 0.02 | 34 | 1014.3 |
| 20260507235705 | 65 | 182 | 0.0 | 0.0 | 0.00 | 0.06 | 0.02 | 33 | 1014.2 |
| 20260507235205 | 65 | 182 | 0.0 | 1.0 | 0.00 | 0.06 | 0.02 | 33 | 1014.0 |
| 20260507234705 | 65 | 182 | 0.0 | 2.0 | 0.00 | 0.06 | 0.02 | 33 | 1014.1 |
| 20260507234205 | 66 | 182 | 0.0 | 1.0 | 0.00 | 0.07 | 0.02 | 33 | 1014.1 |
| 20260507233705 | 66 | 182 | 0.0 | 3.0 | 0.00 | 0.08 | 0.02 | 32 | 1014.1 |
| 20260507233204 | 66 | 182 | 1.0 | 3.0 | 0.00 | 0.08 | 0.02 | 31 | 1014.1 |
| 20260507232705 | 66 | 182 | 0.0 | 2.0 | 0.00 | 0.09 | 0.02 | 31 | 1014.1 |
| 20260507232205 | 66 | 179 | 1.0 | 3.0 | 0.00 | 0.10 | 0.02 | 30 | 1014.2 |
| 20260507231205 | 66 | 251 | 1.0 | 2.0 | 0.00 | 0.11 | 0.02 | 29 | 1014.3 |
| 20260507230205 | 67 | 251 | 1.0 | 2.0 | 0.00 | 0.13 | 0.02 | 29 | 1014.3 |
| 20260507225705 | 67 | 251 | 1.0 | 2.0 | 0.00 | 0.14 | 0.02 | 28 | 1014.3 |
| 20260507225205 | 67 | 251 | 0.0 | 0.0 | 0.00 | 0.15 | 0.02 | 29 | 1014.3 |
| 20260507224706 | 67 | 252 | 0.0 | 2.0 | 0.00 | 0.16 | 0.02 | 30 | 1014.4 |
| 20260507223705 | 67 | 251 | 0.0 | 2.0 | 0.00 | 0.18 | 0.02 | 30 | 1014.3 |
| 20260507223205 | 66 | 251 | 0.0 | 1.0 | 0.00 | 0.19 | 0.02 | 30 | 1014.4 |
| 20260507222705 | 66 | 251 | 1.0 | 3.0 | 0.00 | 0.20 | 0.02 | 31 | 1014.3 |
| 20260507222205 | 66 | 0 | 0.0 | 3.0 | 0.00 | 0.21 | 0.02 | 30 | 1014.4 |
| 20260507221705 | 66 | 317 | 0.0 | 3.0 | 0.00 | 0.22 | 0.02 | 30 | 1014.5 |
| 20260507221205 | 65 | 302 | 1.0 | 3.0 | 0.00 | 0.22 | 0.02 | 30 | 1014.4 |
| 20260507220205 | 65 | 233 | 2.0 | 7.0 | 0.00 | 0.24 | 0.02 | 30 | 1014.5 |
| 20260507215704 | 65 | 5 | 0.0 | 2.0 | 0.00 | 0.26 | 0.02 | 30 | 1014.7 |
| 20260507215205 | 65 | 5 | 2.0 | 3.0 | 0.00 | 0.27 | 0.02 | 30 | 1014.7 |
| 20260507214705 | 65 | 351 | 0.0 | 3.0 | 0.00 | 0.28 | 0.02 | 32 | 1014.9 |
| 20260507214205 | 65 | 355 | 1.0 | 14.0 | 0.00 | 0.30 | 0.02 | 30 | 1015.0 |
| 20260507213705 | 65 | 4 | 3.0 | 7.0 | 0.00 | 0.32 | 0.02 | 28 | 1014.9 |
| 20260507213205 | 65 | 255 | 0.0 | 3.0 | 0.00 | 0.33 | 0.02 | 32 | 1015.1 |
| 20260507212204 | 65 | 294 | 1.0 | 6.0 | 0.00 | 0.37 | 0.02 | 30 | 1015.3 |
| 20260507211706 | 66 | 305 | 2.0 | 6.0 | 0.00 | 0.39 | 0.02 | 29 | 1015.3 |
| 20260507211205 | 66 | 285 | 1.0 | 5.0 | 0.00 | 0.40 | 0.02 | 30 | 1015.5 |
| 20260507210704 | 66 | 328 | 3.0 | 12.0 | 0.00 | 0.41 | 0.02 | 30 | 1015.5 |
| 20260507210205 | 66 | 259 | 3.0 | 10.0 | 0.00 | 0.42 | 0.02 | 28 | 1015.6 |
| 20260507205705 | 67 | 241 | 1.0 | 9.0 | 0.00 | 0.42 | 0.02 | 29 | 1015.6 |
| 20260507205205 | 68 | 294 | 1.0 | 9.0 | 0.00 | 0.43 | 0.02 | 30 | 1015.7 |
| 20260507204704 | 69 | 268 | 1.0 | 6.0 | 0.00 | 0.43 | 0.02 | 28 | 1015.7 |
| 20260507204205 | 69 | 0 | 1.0 | 3.0 | 0.00 | 0.44 | 0.02 | 29 | 1015.7 |
| 20260507203704 | 70 | 253 | 1.0 | 3.0 | 0.00 | 0.44 | 0.02 | 31 | 1015.8 |
| 20260507202705 | 70 | 241 | 2.0 | 7.0 | 0.00 | 0.44 | 0.02 | 30 | 1015.9 |
| 20260507202204 | 69 | 280 | 3.0 | 8.0 | 0.00 | 0.45 | 0.02 | 29 | 1015.9 |
| 20260507201704 | 69 | 310 | 2.0 | 9.0 | 0.00 | 0.45 | 0.02 | 32 | 1015.9 |
| 20260507201205 | 69 | 297 | 1.0 | 5.0 | 0.00 | 0.46 | 0.02 | 29 | 1016.0 |
| 20260507200705 | 69 | 3 | 2.0 | 6.0 | 0.00 | 0.46 | 0.02 | 28 | 1016.0 |
| 20260507200204 | 69 | 4 | 2.0 | 6.0 | 0.00 | 0.46 | 0.02 | 30 | 1016.1 |
| 20260507195704 | 68 | 254 | 1.0 | 3.0 | 0.00 | 0.47 | 0.02 | 32 | 1016.1 |
| 20260507195205 | 67 | 180 | 1.0 | 3.0 | 0.00 | 0.47 | 0.02 | 30 | 1016.1 |
| 20260507194705 | 67 | 209 | 2.0 | 5.0 | 0.00 | 0.48 | 0.02 | 36 | 1016.2 |
| 20260507194205 | 66 | 197 | 4.0 | 10.0 | 0.00 | 0.48 | 0.02 | 35 | 1016.2 |
| 20260507193704 | 65 | 353 | 3.0 | 9.0 | 0.00 | 0.48 | 0.02 | 32 | 1016.2 |
| 20260507193205 | 65 | 45 | 3.0 | 8.0 | 0.00 | 0.49 | 0.02 | 30 | 1016.3 |
| 20260507192705 | 65 | 286 | 1.0 | 7.0 | 0.00 | 0.49 | 0.02 | 37 | 1016.4 |
| 20260507192205 | 64 | 109 | 1.0 | 2.0 | 0.00 | 0.50 | 0.02 | 35 | 1016.4 |
| 20260507191705 | 64 | 332 | 1.0 | 3.0 | 0.00 | 0.50 | 0.02 | 35 | 1016.4 |
| 20260507191205 | 64 | 321 | 0.0 | 3.0 | 0.00 | 0.50 | 0.02 | 34 | 1016.5 |
| 20260507190705 | 64 | 174 | 0.0 | 2.0 | 0.00 | 0.50 | 0.02 | 34 | 1016.5 |
| 20260507190204 | 64 | 174 | 1.0 | 2.0 | 0.00 | 0.50 | 0.02 | 35 | 1016.6 |
| 20260507184704 | 64 | 212 | 2.0 | 5.0 | 0.00 | 0.51 | 0.02 | 36 | 1016.7 |
| 20260507184205 | 63 | 175 | 0.0 | 3.0 | 0.00 | 0.52 | 0.02 | 35 | 1016.7 |
| 20260507183705 | 63 | 254 | 0.0 | 1.0 | 0.00 | 0.52 | 0.02 | 34 | 1016.8 |
| 20260507182704 | 63 | 254 | 1.0 | 3.0 | 0.00 | 0.52 | 0.02 | 36 | 1016.8 |
| 20260507182206 | 63 | 255 | 0.0 | 1.0 | 0.00 | 0.53 | 0.02 | 36 | 1016.9 |
| 20260507181705 | 63 | 255 | 1.0 | 3.0 | 0.00 | 0.53 | 0.02 | 36 | 1016.9 |
| 20260507181205 | 63 | 15 | 0.0 | 2.0 | 0.00 | 0.53 | 0.02 | 35 | 1017.0 |
| 20260507180205 | 62 | 15 | 0.0 | 2.0 | 0.00 | 0.53 | 0.02 | 37 | 1017.0 |
| 20260507175704 | 62 | 15 | 0.0 | 2.0 | 0.00 | 0.53 | 0.02 | 35 | 1017.0 |
| 20260507175204 | 62 | 15 | 0.0 | 3.0 | 0.00 | 0.53 | 0.02 | 37 | 1017.0 |
| 20260507174705 | 62 | 15 | 0.0 | 0.0 | 0.00 | 0.54 | 0.02 | 38 | 1017.0 |
| 20260507174205 | 62 | 15 | 0.0 | 2.0 | 0.00 | 0.54 | 0.02 | 37 | 1017.0 |
| 20260507173705 | 62 | 17 | 1.0 | 2.0 | 0.00 | 0.54 | 0.02 | 36 | 1017.1 |
| 20260507172704 | 62 | 319 | 1.0 | 2.0 | 0.00 | 0.54 | 0.02 | 35 | 1017.1 |
| 20260507172205 | 62 | 281 | 1.0 | 6.0 | 0.00 | 0.54 | 0.02 | 36 | 1017.2 |
| 20260507171705 | 62 | 269 | 1.0 | 3.0 | 0.00 | 0.54 | 0.02 | 36 | 1017.1 |
| 20260507171205 | 62 | 269 | 0.0 | 2.0 | 0.00 | 0.54 | 0.02 | 34 | 1017.2 |
| 20260507170705 | 62 | 269 | 0.0 | 1.0 | 0.00 | 0.54 | 0.02 | 36 | 1017.2 |
| 20260507170205 | 62 | 269 | 0.0 | 3.0 | 0.00 | 0.54 | 0.02 | 36 | 1017.2 |
| 20260507165705 | 62 | 269 | 1.0 | 3.0 | 0.00 | 0.54 | 0.02 | 35 | 1017.2 |
| 20260507165205 | 62 | 270 | 2.0 | 5.0 | 0.00 | 0.54 | 0.02 | 35 | 1017.2 |
| 20260507164704 | 63 | 282 | 2.0 | 8.0 | 0.00 | 0.54 | 0.02 | 34 | 1017.3 |
| 20260507164204 | 63 | 243 | 1.0 | 3.0 | 0.00 | 0.54 | 0.02 | 34 | 1017.3 |
| 20260507163205 | 63 | 250 | 1.0 | 3.0 | 0.00 | 0.54 | 0.02 | 35 | 1017.3 |
| 20260507162704 | 63 | 267 | 0.0 | 3.0 | 0.00 | 0.55 | 0.02 | 37 | 1017.4 |
| 20260507162204 | 62 | 5 | 1.0 | 2.0 | 0.00 | 0.55 | 0.02 | 37 | 1017.4 |
| 20260507161705 | 62 | 5 | 2.0 | 5.0 | 0.00 | 0.55 | 0.02 | 36 | 1017.5 |
| 20260507161205 | 63 | 73 | 1.0 | 3.0 | 0.00 | 0.55 | 0.02 | 36 | 1017.5 |
| 20260507160705 | 63 | 151 | 1.0 | 6.0 | 0.00 | 0.55 | 0.02 | 36 | 1017.4 |
| 20260507160204 | 63 | 208 | 2.0 | 6.0 | 0.00 | 0.55 | 0.02 | 37 | 1017.4 |
| 20260507155705 | 62 | 260 | 2.0 | 12.0 | 0.00 | 0.55 | 0.02 | 38 | 1017.4 |
| 20260507155205 | 62 | 3 | 1.0 | 6.0 | 0.00 | 0.55 | 0.02 | 39 | 1017.5 |
| 20260507154704 | 62 | 282 | 3.0 | 8.0 | 0.00 | 0.55 | 0.02 | 39 | 1017.5 |
| 20260507154205 | 61 | 59 | 2.0 | 8.0 | 0.00 | 0.55 | 0.02 | 38 | 1017.5 |
| 20260507153704 | 61 | 312 | 1.0 | 5.0 | 0.00 | 0.55 | 0.02 | 40 | 1017.5 |
| 20260507153204 | 60 | 308 | 0.0 | 3.0 | 0.00 | 0.55 | 0.02 | 39 | 1017.5 |
| 20260507151705 | 59 | 276 | 2.0 | 9.0 | 0.00 | 0.56 | 0.02 | 40 | 1017.5 |
| 20260507151204 | 58 | 252 | 1.0 | 3.0 | 0.00 | 0.56 | 0.02 | 41 | 1017.5 |
| 20260507150704 | 58 | 258 | 3.0 | 9.0 | 0.00 | 0.56 | 0.02 | 42 | 1017.6 |
| 20260507150205 | 57 | 251 | 4.0 | 12.0 | 0.00 | 0.56 | 0.02 | 40 | 1017.5 |
| 20260507145704 | 57 | 247 | 4.0 | 9.0 | 0.00 | 0.56 | 0.02 | 42 | 1017.6 |
| 20260507145204 | 56 | 275 | 1.0 | 3.0 | 0.00 | 0.56 | 0.02 | 43 | 1017.5 |
| 20260507144704 | 56 | 276 | 3.0 | 9.0 | 0.00 | 0.56 | 0.02 | 43 | 1017.5 |